[[{"header":{"parameterUnit":"m.s-1","parameterCategory":1,"la1":30.2991,"la2":30.254,"lo1":-89.0895,"lo2":-89.0444,"dy":0.0017,"dx":0.0017,"nx":28,"ny":28,"refTime":"2023-10-08T03:00:00:Z","depth":0,"parameterNumber":2,"parameterNumberName":"U-component_of_WINDS"},"data":[0,0,0,0,0,0,0,0,0,0,0,0,0,0,0,0,0,0,0,0,0,0,0,0,0,0,0,0,0,0,0,0,0,0,0,0,0,0,0,0,0,0,0,0,0,0,0,0,0,0,0,0,0,0,0,0,0,0,-0.3946,-0.3947,0,-0.4068,-0.407,-0.4071,-0.4161,-0.4162,-0.4163,-0.4163,-0.4286,-0.4288,-0.4291,0,0,0,0,0,0,0,0,0,0,0,0,0,-0.3787,-0.3789,-0.3946,-0.3947,-0.3949,-0.4068,-0.407,-0.4071,-0.4161,-0.4162,-0.4163,-0.4164,-0.4285,-0.4288,-0.4291,0,0,0,0,0,0,0,0,0,0,0,0,0,-0.3877,-0.379,-0.3946,-0.4008,-0.4015,-0.4068,-0.407,-0.4072,-0.4161,-0.4162,-0.4163,-0.4164,-0.4284,-0.4287,-0.4291,-0.4291,0,0,-0.4303,-0.4304,0,0,0,0,0,0,0,0,-0.3872,-0.3883,-0.3997,-0.4004,-0.4011,-0.4101,-0.4059,-0.4145,-0.416,-0.4105,-0.4163,-0.4165,-0.4223,-0.4232,-0.4252,-0.4297,-0.4302,-0.4303,-0.4305,-0.4307,-0.4308,0,0,0,0,0,0,0,-0.3865,-0.3878,-0.3994,-0.3999,-0.4007,-0.4029,-0.4043,-0.4075,-0.4156,-0.411,-0.4117,-0.413,-0.4227,-0.4248,-0.4256,-0.4304,-0.4303,-0.4306,-0.4309,-0.431,-0.4353,-0.4352,0,0,0,0,0,0,-0.385,-0.3872,-0.399,-0.3998,-0.3943,-0.4031,-0.4047,-0.4071,-0.4156,-0.417,-0.4129,-0.4134,-0.4241,-0.4251,-0.426,-0.4265,-0.4307,-0.4311,-0.4313,-0.4354,-0.4353,-0.4352,0,0,0,0,0,0,-0.3846,-0.3859,-0.3985,-0.3937,-0.3955,-0.4032,-0.4059,-0.4073,-0.4094,-0.417,-0.4185,-0.4136,-0.4242,-0.4255,-0.4283,-0.427,-0.4312,-0.4316,-0.4356,-0.4354,-0.4352,-0.4274,0,0,0,0,0,0,-0.3841,-0.3858,-0.3859,-0.3936,-0.3957,-0.4006,-0.4058,-0.4074,-0.41,-0.4108,-0.4181,-0.4194,-0.4244,-0.4276,-0.4286,-0.4276,-0.4319,-0.4357,-0.4355,-0.4353,-0.4278,-0.427,-0.4263,0,0,0,0,0,-0.3835,-0.3832,-0.3859,-0.3872,-0.396,-0.4006,-0.4017,-0.4076,-0.4099,-0.4101,-0.415,-0.4191,-0.427,-0.4279,-0.429,-0.4281,-0.4358,-0.4356,-0.4353,-0.4282,-0.4272,-0.4263,0,0,0,0,0,0,-0.375,-0.3843,-0.3874,-0.3896,-0.3942,-0.4021,-0.4025,-0.4064,-0.4104,-0.4109,-0.418,-0.4196,-0.4216,-0.4252,-0.4259,-0.4285,-0.4319,-0.4319,-0.4261,-0.4252,-0.4245,-0.4235,-0.4322,0,0,0,0,0,-0.3734,-0.3764,-0.3843,-0.3855,-0.3877,-0.3946,-0.3968,-0.401,-0.406,-0.408,-0.4131,-0.4178,-0.4213,-0.4235,-0.4271,-0.4284,-0.43,-0.4283,-0.4276,-0.4269,-0.4268,-0.4276,-0.4269,-0.4343,-0.4343,-0.4343,0,0,-0.3701,-0.3756,-0.377,-0.3839,-0.388,-0.3908,-0.3962,-0.399,-0.4011,-0.4084,-0.4114,-0.4152,-0.4209,-0.4229,-0.424,-0.4259,-0.4251,-0.4266,-0.426,-0.4263,-0.4273,-0.4266,-0.4259,-0.4342,-0.4342,-0.4342,0,0,-0.3656,-0.37,-0.3714,-0.3754,-0.3815,-0.3862,-0.3865,-0.3938,-0.3966,-0.3997,-0.4052,-0.4078,-0.4137,-0.4175,-0.4202,-0.4169,-0.4209,-0.4179,-0.4139,-0.4146,-0.4141,-0.4136,-0.4123,-0.4118,-0.4178,-0.4178,-0.4178,0,-0.3607,-0.3652,-0.3716,-0.3741,-0.3769,-0.3837,-0.3851,-0.3886,-0.3956,-0.3973,-0.3994,-0.4069,-0.4112,-0.4141,-0.4133,-0.4153,-0.4158,-0.4171,-0.4136,-0.4132,-0.4129,-0.4117,-0.4112,-0.4174,-0.4174,-0.4174,-0.4175,0,-0.3588,-0.3619,-0.3623,-0.3689,-0.3718,-0.3737,-0.3803,-0.3824,-0.3862,-0.3906,-0.3935,-0.3989,-0.4038,-0.4048,-0.4086,-0.4082,-0.4092,-0.4123,-0.4159,-0.4116,-0.4107,-0.4103,-0.4168,-0.4169,-0.417,-0.4171,0,0,-0.3493,-0.3594,-0.3594,-0.3625,-0.3697,-0.3721,-0.3743,-0.3791,-0.3807,-0.3852,-0.3871,-0.392,-0.3949,-0.398,-0.4023,-0.4029,-0.3998,-0.406,-0.4062,-0.4046,-0.3996,-0.3971,-0.3965,-0.4025,-0.4024,-0.4024,-0.3991,0,-0.3458,-0.3501,-0.3559,-0.3582,-0.3611,-0.3675,-0.3694,-0.3739,-0.378,-0.3809,-0.3854,-0.3887,-0.3924,-0.3943,-0.3952,-0.4,-0.3989,-0.4003,-0.4042,-0.4043,-0.4025,-0.396,-0.3934,-0.39,-0.3988,-0.3987,-0.3987,0,-0.3423,-0.3465,-0.3491,-0.356,-0.3574,-0.359,-0.3638,-0.3666,-0.3718,-0.3748,-0.3781,-0.3827,-0.3852,-0.3884,-0.3918,-0.3927,-0.3946,-0.3971,-0.3972,-0.3977,-0.4011,-0.3963,-0.3891,-0.3885,-0.3982,-0.3982,-0.3982,0,-0.3349,-0.3413,-0.3437,-0.3461,-0.3542,-0.3551,-0.3586,-0.3639,-0.3664,-0.3706,-0.3722,-0.3766,-0.3789,-0.3822,-0.3878,-0.3896,-0.3905,-0.3942,-0.3929,-0.3927,-0.3928,-0.3927,-0.3857,-0.3941,-0.3941,-0.3941,-0.3941,0,-0.3304,-0.3317,-0.3405,-0.3419,-0.3435,-0.3501,-0.3515,-0.3555,-0.3602,-0.3624,-0.3682,-0.3702,-0.3775,-0.3803,-0.3847,-0.3868,-0.3878,-0.3902,-0.3913,-0.3896,-0.3893,-0.3909,-0.3913,-0.394,-0.394,-0.394,-0.3941,0,-0.3224,-0.3284,-0.3314,-0.3388,-0.3407,-0.3416,-0.3479,-0.3495,-0.3539,-0.3566,-0.3577,-0.3646,-0.3681,-0.3741,-0.3793,-0.3823,-0.3835,-0.3855,-0.3817,-0.3824,-0.3807,-0.3807,-0.3745,-0.3739,-0.3827,-0.3826,-0.3825,0,-0.3191,-0.3203,-0.3278,-0.3298,-0.333,-0.3361,-0.3386,-0.3451,-0.3475,-0.3535,-0.3543,-0.3583,-0.3619,-0.3673,-0.3727,-0.3767,-0.3788,-0.3763,-0.3794,-0.3776,-0.3786,-0.3784,-0.3785,-0.3755,-0.3754,-0.3753,-0.3752,0,-0.3125,-0.3154,-0.3189,-0.3234,-0.3263,-0.3301,-0.3342,-0.3355,-0.3428,-0.3452,-0.349,-0.3517,-0.3571,-0.361,-0.3657,-0.3692,-0.3733,-0.3742,-0.3741,-0.3723,-0.3701,-0.3712,-0.3797,-0.3743,-0.3744,-0.3745,-0.3745,-0.3745,-0.3067,-0.308,-0.3135,-0.3172,-0.321,-0.3247,-0.3265,-0.3311,-0.3344,-0.3393,-0.3429,-0.3464,-0.3515,-0.3583,-0.3615,-0.3642,-0.3661,-0.366,-0.3659,-0.3658,-0.3651,-0.3697,-0.3651,-0.3652,-0.3652,-0.3652,-0.3652,0,-0.3004,-0.3042,-0.3075,-0.3131,-0.3159,-0.3197,-0.3245,-0.3266,-0.3296,-0.334,-0.3374,-0.3416,-0.3454,-0.351,-0.3552,-0.3563,-0.3583,-0.3572,-0.3571,-0.3578,-0.3632,-0.3628,-0.3554,-0.3554,-0.3554,-0.3554,-0.3555,-0.3555,-0.2974,-0.2997,-0.3032,-0.3074,-0.3113,-0.3148,-0.3171,-0.3205,-0.3241,-0.3285,-0.3317,-0.3354,-0.3403,-0.3449,-0.3485,-0.35,-0.3513,-0.3495,-0.3516,-0.3565,-0.3574,-0.3583,-0.358,-0.3497,-0.3497,-0.346,-0.346,-0.3459]},{"header":{"parameterUnit":"m.s-1","parameterCategory":1,"la1":30.2991,"la2":30.254,"lo1":-89.0895,"lo2":-89.0444,"dy":0.0017,"dx":0.0017,"nx":28,"ny":28,"refTime":"2023-10-08T03:00:00:Z","depth":0,"parameterNumber":3,"parameterNumberName":"V-component_of_WINDS"},"data":[0,0,0,0,0,0,0,0,0,0,0,0,0,0,0,0,0,0,0,0,0,0,0,0,0,0,0,0,0,0,0,0,0,0,0,0,0,0,0,0,0,0,0,0,0,0,0,0,0,0,0,0,0,0,0,0,0,0,-2.6401,-2.6402,0,-2.6492,-2.6493,-2.6494,-2.6466,-2.6464,-2.6462,-2.6461,-2.6554,-2.6558,-2.6562,0,0,0,0,0,0,0,0,0,0,0,0,0,-2.6204,-2.6208,-2.6401,-2.6402,-2.6403,-2.6491,-2.6493,-2.6494,-2.6467,-2.6464,-2.6462,-2.646,-2.6553,-2.6558,-2.6563,0,0,0,0,0,0,0,0,0,0,0,0,0,-2.6292,-2.6209,-2.6401,-2.64,-2.6401,-2.6491,-2.6493,-2.6494,-2.6467,-2.6464,-2.6461,-2.6459,-2.6551,-2.6557,-2.6564,-2.666,0,0,-2.6583,-2.6586,0,0,0,0,0,0,0,0,-2.6287,-2.6299,-2.6399,-2.64,-2.6401,-2.6465,-2.6457,-2.655,-2.6468,-2.6442,-2.6461,-2.6457,-2.6527,-2.6535,-2.6558,-2.6664,-2.6668,-2.6584,-2.6588,-2.659,-2.6592,0,0,0,0,0,0,0,-2.6281,-2.6295,-2.6437,-2.6401,-2.6402,-2.6395,-2.6405,-2.6475,-2.6499,-2.6444,-2.6442,-2.6453,-2.6527,-2.6552,-2.656,-2.667,-2.6583,-2.6589,-2.6593,-2.6596,-2.6859,-2.6862,0,0,0,0,0,0,-2.6274,-2.629,-2.6434,-2.6439,-2.6336,-2.6401,-2.6412,-2.6447,-2.6498,-2.6503,-2.6456,-2.6452,-2.6543,-2.6553,-2.6563,-2.6679,-2.659,-2.6596,-2.66,-2.6856,-2.686,-2.6863,0,0,0,0,0,0,-2.627,-2.6287,-2.643,-2.6364,-2.6382,-2.6408,-2.6448,-2.6451,-2.6476,-2.6507,-2.6511,-2.6477,-2.6541,-2.6554,-2.6636,-2.6682,-2.6599,-2.6605,-2.6852,-2.6857,-2.6861,-2.6911,0,0,0,0,0,0,-2.6264,-2.6285,-2.6322,-2.6365,-2.6386,-2.6501,-2.6451,-2.6454,-2.6487,-2.6483,-2.6528,-2.6533,-2.654,-2.6627,-2.6642,-2.6689,-2.661,-2.6848,-2.6854,-2.686,-2.6906,-2.6917,-2.6927,0,0,0,0,0,-2.6257,-2.6333,-2.6324,-2.6342,-2.6432,-2.6504,-2.6516,-2.6521,-2.6491,-2.6528,-2.6548,-2.6532,-2.6674,-2.6635,-2.6653,-2.6702,-2.6845,-2.6852,-2.6859,-2.6901,-2.6915,-2.6927,0,0,0,0,0,0,-2.6295,-2.6339,-2.6329,-2.6422,-2.6459,-2.6499,-2.6546,-2.6536,-2.6583,-2.6577,-2.6583,-2.6593,-2.6677,-2.6698,-2.6653,-2.6798,-2.6755,-2.6766,-2.6781,-2.6795,-2.6805,-2.6798,-2.6615,0,0,0,0,0,-2.6314,-2.6369,-2.6404,-2.6482,-2.6501,-2.6521,-2.6552,-2.6553,-2.6593,-2.6608,-2.6634,-2.6673,-2.6727,-2.6762,-2.6813,-2.6909,-2.6918,-2.6951,-2.6962,-2.6971,-2.698,-2.7032,-2.7047,-2.6886,-2.6886,-2.6886,0,0,-2.6354,-2.6385,-2.6419,-2.649,-2.652,-2.6576,-2.6534,-2.6596,-2.6638,-2.6618,-2.6696,-2.6717,-2.676,-2.6849,-2.689,-2.6869,-2.7026,-2.698,-2.6986,-2.6991,-2.7041,-2.7056,-2.7069,-2.6891,-2.689,-2.689,0,0,-2.6456,-2.6485,-2.6553,-2.6583,-2.6627,-2.664,-2.6656,-2.6698,-2.671,-2.6789,-2.6775,-2.6825,-2.6917,-2.6949,-2.6977,-2.709,-2.7077,-2.7107,-2.7162,-2.7213,-2.7225,-2.7237,-2.7276,-2.7291,-2.7116,-2.7116,-2.7116,0,-2.65,-2.6584,-2.6589,-2.6651,-2.6683,-2.6667,-2.6736,-2.6765,-2.6824,-2.6846,-2.6823,-2.6938,-2.6966,-2.7062,-2.7089,-2.7113,-2.7131,-2.7101,-2.7223,-2.7235,-2.7245,-2.7283,-2.7298,-2.7119,-2.7119,-2.7119,-2.7118,0,-2.6636,-2.6695,-2.6744,-2.6801,-2.6838,-2.6904,-2.6918,-2.6955,-2.6953,-2.6968,-2.7048,-2.7081,-2.7139,-2.7162,-2.716,-2.7257,-2.7243,-2.7222,-2.7179,-2.7264,-2.7299,-2.7314,-2.7124,-2.7123,-2.7122,-2.7121,0,0,-2.6764,-2.6822,-2.684,-2.6866,-2.6914,-2.6959,-2.7024,-2.708,-2.7111,-2.7153,-2.7207,-2.7285,-2.7265,-2.7297,-2.7299,-2.7343,-2.743,-2.7316,-2.7317,-2.7336,-2.7539,-2.7554,-2.7571,-2.7422,-2.7425,-2.7427,-2.7535,0,-2.6869,-2.6982,-2.6988,-2.709,-2.7144,-2.713,-2.7186,-2.7222,-2.7238,-2.7286,-2.7303,-2.7358,-2.7328,-2.7347,-2.739,-2.741,-2.7471,-2.7403,-2.7472,-2.7474,-2.7461,-2.759,-2.7606,-2.7706,-2.7549,-2.7551,-2.7553,0,-2.7006,-2.7052,-2.716,-2.7199,-2.7222,-2.7273,-2.7324,-2.737,-2.741,-2.7418,-2.7454,-2.745,-2.7516,-2.7471,-2.7562,-2.7516,-2.7544,-2.7559,-2.7563,-2.7569,-2.7518,-2.7599,-2.7739,-2.7753,-2.7575,-2.7573,-2.7572,0,-2.7088,-2.7176,-2.7252,-2.7274,-2.7323,-2.7358,-2.738,-2.7418,-2.7451,-2.7496,-2.7517,-2.7569,-2.7598,-2.7638,-2.7648,-2.7615,-2.7739,-2.7695,-2.7747,-2.7747,-2.7774,-2.7772,-2.7919,-2.7793,-2.7793,-2.7793,-2.7793,0,-2.7204,-2.7271,-2.7289,-2.7335,-2.7409,-2.7415,-2.7488,-2.7508,-2.7541,-2.7591,-2.7583,-2.763,-2.7641,-2.769,-2.7699,-2.7772,-2.7785,-2.7794,-2.7795,-2.7794,-2.7793,-2.7813,-2.7806,-2.7797,-2.7796,-2.7795,-2.7795,0,-2.7307,-2.7322,-2.7404,-2.7443,-2.7455,-2.7507,-2.7541,-2.7586,-2.76,-2.7664,-2.7679,-2.7702,-2.776,-2.7774,-2.7843,-2.7848,-2.7935,-2.793,-2.7922,-2.7921,-2.7972,-2.7967,-2.8137,-2.8159,-2.8019,-2.8021,-2.8022,0,-2.738,-2.7431,-2.7476,-2.7508,-2.7532,-2.7585,-2.7618,-2.7626,-2.7662,-2.7711,-2.775,-2.7806,-2.7852,-2.7945,-2.7968,-2.802,-2.8016,-2.8072,-2.8024,-2.8021,-2.8016,-2.8013,-2.8018,-2.8081,-2.8083,-2.8084,-2.8085,0,-2.7508,-2.7512,-2.7561,-2.7612,-2.7652,-2.7693,-2.7732,-2.7759,-2.7773,-2.7813,-2.7871,-2.7907,-2.7977,-2.8033,-2.8086,-2.8109,-2.8099,-2.81,-2.8114,-2.8114,-2.8106,-2.811,-2.7946,-2.8096,-2.8095,-2.8094,-2.8093,-2.8093,-2.7598,-2.7642,-2.768,-2.7734,-2.7764,-2.7801,-2.7844,-2.7864,-2.7913,-2.797,-2.7972,-2.8036,-2.8075,-2.8145,-2.8171,-2.8221,-2.8204,-2.8225,-2.823,-2.8236,-2.824,-2.8099,-2.823,-2.823,-2.823,-2.823,-2.8229,0,-2.7724,-2.7748,-2.7797,-2.7852,-2.7894,-2.7882,-2.7924,-2.796,-2.8016,-2.8053,-2.8098,-2.8165,-2.822,-2.8247,-2.8301,-2.8336,-2.8333,-2.835,-2.8347,-2.8352,-2.8252,-2.8234,-2.8351,-2.8351,-2.8351,-2.8351,-2.8351,-2.8351,-2.7795,-2.7868,-2.7878,-2.7966,-2.799,-2.8052,-2.8077,-2.811,-2.814,-2.8215,-2.826,-2.8277,-2.831,-2.8367,-2.8416,-2.8423,-2.8443,-2.8462,-2.8466,-2.8372,-2.836,-2.8348,-2.833,-2.8466,-2.8467,-2.8562,-2.8563,-2.8564]}]]